{"data":{"norad_id":63502,"intl_designator":"2025-071K","name":"STARLINK-33818","alt_names":[],"object_type":"PAYLOAD","status":"ACTIVE","operator":null,"country":"US","launch_date":"2025-04-07","launch_site_code":"AFWTR","launch_vehicle":null,"mission":null,"orbit_class":"UNKNOWN","rcs_meters":null,"size_class":null,"mass_kg":null,"dimensions":null,"purposes":["comms"],"wikipedia_slug":null,"has_3d_model":false,"image_url":null,"decayed_at":null,"tle_current":{"epoch":"2026-05-24T17:27:17.945856Z","epoch_age_seconds":91902,"freshness":"FRESH","line1":"1 63502U 25071K   26144.72729104  .00013678  00000+0  47312-3 0  9994","line2":"2 63502  53.1590 146.5888 0001242  89.5192 270.5951 15.30197529 64410","mean_motion":15.30197529,"eccentricity":0.0001242,"inclination_deg":53.159,"raan_deg":146.5888,"arg_perigee_deg":89.5192,"mean_anomaly_deg":270.5951,"bstar":0.00047312,"rev_number":6441,"period_min":94.105497670033,"perigee_km":474.37126014649,"apogee_km":476.07363463322,"semimajor_km":6853.3594473899,"source":"CELESTRAK","updated_at":"2026-05-25T13:38:20.013457Z"}}}